Time,TemperatureF,DewpointF,PressureIn,WindDirection,WindDirectionDegrees,WindSpeedMPH,WindSpeedGustMPH,Humidity,HourlyPrecipIn,Conditions,Clouds,dailyrainin,SoftwareType,DateUTC
2013-02-03 00:03:00,36.2,30.6,30.16,NNW,327,0.0,3.0,80,0.00,,OVC060,0.00,VWS V14.01,2013-02-03 06:03:00,
2013-02-03 00:08:00,36.2,30.6,30.16,NNW,327,0.0,0.0,80,0.00,,OVC060,0.00,VWS V14.01,2013-02-03 06:08:00,
2013-02-03 00:13:00,36.1,30.5,30.16,NNW,327,0.0,0.0,80,0.00,,OVC060,0.00,VWS V14.01,2013-02-03 06:13:00,
2013-02-03 00:18:00,35.9,30.3,30.15,NNW,327,0.0,0.0,80,0.00,,OVC060,0.00,VWS V14.01,2013-02-03 06:18:00,
2013-02-03 00:23:00,35.9,30.3,30.16,NW,326,0.0,0.0,80,0.00,,OVC060,0.00,VWS V14.01,2013-02-03 06:23:00,
2013-02-03 00:28:00,35.7,30.5,30.16,NW,326,0.0,0.0,81,0.00,,OVC060,0.00,VWS V14.01,2013-02-03 06:28:00,
2013-02-03 00:33:00,35.6,30.4,30.16,NW,326,0.0,0.0,81,0.00,,OVC060,0.00,VWS V14.01,2013-02-03 06:33:00,
2013-02-03 00:38:00,35.5,30.3,30.16,NW,326,0.0,0.0,81,0.00,,OVC060,0.00,VWS V14.01,2013-02-03 06:38:00,
2013-02-03 00:43:00,35.3,30.1,30.16,NNW,327,0.0,0.0,81,0.00,,OVC080,0.00,VWS V14.01,2013-02-03 06:43:00,
2013-02-03 00:48:00,35.2,30.3,30.15,NNW,327,0.0,0.0,82,0.00,,OVC080,0.00,VWS V14.01,2013-02-03 06:48:00,
2013-02-03 00:53:00,35.0,30.1,30.15,NW,326,0.0,0.0,82,0.00,,OVC080,0.00,VWS V14.01,2013-02-03 06:53:00,
2013-02-03 00:58:00,34.9,30.0,30.15,NNW,327,0.0,0.0,82,0.00,,OVC080,0.00,VWS V14.01,2013-02-03 06:58:00,
2013-02-03 01:03:00,34.8,29.9,30.15,NNW,327,0.0,0.0,82,0.00,,OVC080,0.00,VWS V14.01,2013-02-03 07:03:00,
2013-02-03 01:08:00,34.7,29.8,30.15,NW,326,0.0,0.0,82,0.00,,OVC080,0.00,VWS V14.01,2013-02-03 07:08:00,
2013-02-03 01:13:00,34.6,30.0,30.15,NNW,327,0.0,0.0,83,0.00,,OVC080,0.00,VWS V14.01,2013-02-03 07:13:00,
2013-02-03 01:18:00,34.5,29.9,30.14,NNW,327,0.0,0.0,83,0.00,,OVC080,0.00,VWS V14.01,2013-02-03 07:18:00,
2013-02-03 01:23:00,34.3,29.7,30.14,NNW,327,0.0,0.0,83,0.00,,OVC080,0.00,VWS V14.01,2013-02-03 07:23:00,
2013-02-03 01:28:00,34.1,29.5,30.14,NW,326,0.0,0.0,83,0.00,,OVC080,0.00,VWS V14.01,2013-02-03 07:28:00,
2013-02-03 01:33:00,33.8,29.5,30.15,NW,326,0.0,0.0,84,0.00,,OVC080,0.00,VWS V14.01,2013-02-03 07:33:00,
2013-02-03 01:38:00,33.6,29.6,30.14,NW,326,0.0,0.0,85,0.00,,OVC080,0.00,VWS V14.01,2013-02-03 07:38:00,
2013-02-03 01:43:00,33.5,29.5,30.13,NNW,327,0.0,1.0,85,0.00,,BKN075,0.00,VWS V14.01,2013-02-03 07:43:00,
2013-02-03 01:48:00,33.5,29.5,30.13,NW,326,0.0,0.0,85,0.00,,BKN075,0.00,VWS V14.01,2013-02-03 07:48:00,
2013-02-03 01:53:00,33.4,29.7,30.13,NNW,327,0.0,0.0,86,0.00,,BKN075,0.00,VWS V14.01,2013-02-03 07:53:00,
2013-02-03 01:58:00,33.2,29.5,30.12,NNW,327,0.0,0.0,86,0.00,,BKN075,0.00,VWS V14.01,2013-02-03 07:58:00,
2013-02-03 02:03:00,33.1,29.4,30.12,NW,326,0.0,0.0,86,0.00,,BKN075,0.00,VWS V14.01,2013-02-03 08:03:00,
2013-02-03 02:08:00,33.1,29.7,30.12,NW,326,0.0,0.0,87,0.00,,BKN075,0.00,VWS V14.01,2013-02-03 08:08:00,
2013-02-03 02:13:00,33.1,29.7,30.12,NNW,327,0.0,0.0,87,0.00,,BKN075,0.00,VWS V14.01,2013-02-03 08:13:00,
2013-02-03 02:18:00,33.2,29.8,30.12,NNW,327,0.0,0.0,87,0.00,,BKN075,0.00,VWS V14.01,2013-02-03 08:18:00,
2013-02-03 02:23:00,33.3,29.9,30.11,NNW,327,0.0,2.0,87,0.00,,BKN075,0.00,VWS V14.01,2013-02-03 08:23:00,
2013-02-03 02:28:00,33.5,30.0,30.11,NW,326,0.0,0.0,87,0.00,,BKN075,0.00,VWS V14.01,2013-02-03 08:28:00,
2013-02-03 02:33:00,33.7,30.0,30.11,NNW,327,0.0,0.0,86,0.00,,BKN075,0.00,VWS V14.01,2013-02-03 08:33:00,
2013-02-03 02:38:00,33.9,30.2,30.11,NNW,327,0.0,0.0,86,0.00,,BKN075,0.00,VWS V14.01,2013-02-03 08:38:00,
2013-02-03 02:43:00,34.0,30.3,30.10,NNW,327,0.0,0.0,86,0.00,,SCT100,0.00,VWS V14.01,2013-02-03 08:43:00,
2013-02-03 02:48:00,34.2,30.5,30.10,NE,34,0.0,3.0,86,0.00,,SCT100,0.00,VWS V14.01,2013-02-03 08:48:00,
2013-02-03 02:53:00,34.3,30.3,30.10,NE,34,0.0,0.0,85,0.00,,SCT100,0.00,VWS V14.01,2013-02-03 08:53:00,
2013-02-03 02:58:00,34.5,30.5,30.10,NE,34,0.0,0.0,85,0.00,,SCT100,0.00,VWS V14.01,2013-02-03 08:58:00,
2013-02-03 03:03:00,34.7,30.7,30.09,NE,34,0.0,0.0,85,0.00,,SCT100,0.00,VWS V14.01,2013-02-03 09:03:00,
2013-02-03 03:08:00,34.8,31.0,30.08,ENE,69,0.0,0.0,86,0.00,,SCT100,0.00,VWS V14.01,2013-02-03 09:08:00,
2013-02-03 03:13:00,34.9,30.9,30.08,ENE,68,0.0,0.0,85,0.00,,SCT100,0.00,VWS V14.01,2013-02-03 09:13:00,
2013-02-03 03:18:00,35.0,31.0,30.08,ENE,69,0.0,0.0,85,0.00,,SCT100,0.00,VWS V14.01,2013-02-03 09:18:00,
2013-02-03 03:23:00,35.1,31.0,30.08,ENE,69,0.0,0.0,85,0.00,,SCT100,0.00,VWS V14.01,2013-02-03 09:23:00,
2013-02-03 03:28:00,35.2,31.1,30.08,ENE,68,0.0,0.0,85,0.00,,SCT100,0.00,VWS V14.01,2013-02-03 09:28:00,
2013-02-03 03:33:00,35.3,31.2,30.08,ENE,68,0.0,0.0,85,0.00,,SCT100,0.00,VWS V14.01,2013-02-03 09:33:00,
2013-02-03 03:38:00,35.5,31.5,30.08,ENE,69,0.0,0.0,85,0.00,,SCT100,0.00,VWS V14.01,2013-02-03 09:38:00,
2013-02-03 03:43:00,35.5,31.5,30.08,ENE,69,0.0,0.0,85,0.00,,OVC060,0.00,VWS V14.01,2013-02-03 09:43:00,
2013-02-03 03:48:00,35.6,31.5,30.09,ENE,68,0.0,0.0,85,0.00,,OVC060,0.00,VWS V14.01,2013-02-03 09:48:00,
2013-02-03 03:53:00,35.6,31.5,30.08,ENE,68,0.0,0.0,85,0.00,,OVC060,0.00,VWS V14.01,2013-02-03 09:53:00,
2013-02-03 03:58:00,35.6,31.8,30.08,ENE,69,0.0,1.0,86,0.00,,OVC060,0.00,VWS V14.01,2013-02-03 09:58:00,
2013-02-03 04:03:00,35.6,32.1,30.07,ENE,69,0.0,0.0,87,0.00,,OVC060,0.00,VWS V14.01,2013-02-03 10:03:00,
2013-02-03 04:08:00,35.5,32.3,30.07,ENE,68,0.0,0.0,88,0.00,,OVC060,0.00,VWS V14.01,2013-02-03 10:08:00,
2013-02-03 04:13:00,35.4,32.2,30.07,ENE,69,0.0,0.0,88,0.00,,OVC060,0.00,VWS V14.01,2013-02-03 10:13:00,
2013-02-03 04:18:00,35.3,32.1,30.08,ENE,69,0.0,0.0,88,0.00,,OVC060,0.00,VWS V14.01,2013-02-03 10:18:00,
2013-02-03 04:23:00,35.3,32.4,30.08,ENE,68,0.0,0.0,89,0.00,,OVC060,0.00,VWS V14.01,2013-02-03 10:23:00,
2013-02-03 04:28:00,35.3,32.4,30.07,ENE,68,0.0,0.0,89,0.00,,OVC060,0.00,VWS V14.01,2013-02-03 10:28:00,
2013-02-03 04:33:00,35.2,32.3,30.07,ENE,69,0.0,0.0,89,0.00,,OVC060,0.00,VWS V14.01,2013-02-03 10:33:00,
2013-02-03 04:38:00,35.2,32.6,30.07,ENE,69,0.0,0.0,90,0.00,,OVC060,0.00,VWS V14.01,2013-02-03 10:38:00,
2013-02-03 04:43:00,35.2,32.3,30.06,ENE,69,0.0,1.0,89,0.00,,-RA,0.00,VWS V14.01,2013-02-03 10:43:00,
2013-02-03 04:48:00,35.2,32.6,30.07,ENE,71,1.0,1.0,90,0.00,,-RA,0.00,VWS V14.01,2013-02-03 10:48:00,
2013-02-03 04:53:00,35.2,32.3,30.06,ESE,122,0.0,3.0,89,0.00,,OVC070,0.00,VWS V14.01,2013-02-03 10:53:00,
2013-02-03 04:58:00,35.3,32.4,30.06,ESE,122,0.0,1.0,89,0.00,,OVC070,0.00,VWS V14.01,2013-02-03 10:58:00,
2013-02-03 05:03:00,35.3,32.4,30.05,SE,130,0.0,0.0,89,0.00,,OVC070,0.00,VWS V14.01,2013-02-03 11:03:00,
2013-02-03 05:08:00,35.2,32.3,30.05,SE,130,0.0,2.0,89,0.00,,OVC070,0.00,VWS V14.01,2013-02-03 11:08:00,
2013-02-03 05:13:00,35.2,32.3,30.06,SE,130,0.0,0.0,89,0.00,,OVC070,0.00,VWS V14.01,2013-02-03 11:13:00,
2013-02-03 05:18:00,35.2,32.6,30.05,SE,132,0.0,0.0,90,0.00,,OVC070,0.00,VWS V14.01,2013-02-03 11:18:00,
2013-02-03 05:23:00,35.3,32.4,30.05,SSE,159,0.0,3.0,89,0.00,,OVC070,0.00,VWS V14.01,2013-02-03 11:23:00,
2013-02-03 05:28:00,35.3,32.4,30.05,SSE,159,0.0,0.0,89,0.00,,OVC070,0.00,VWS V14.01,2013-02-03 11:28:00,
2013-02-03 05:33:00,35.5,32.6,30.05,SSE,159,0.0,3.0,89,0.00,,OVC070,0.00,VWS V14.01,2013-02-03 11:33:00,
2013-02-03 05:38:00,35.4,32.5,30.05,SSE,159,0.0,3.0,89,0.00,,OVC070,0.00,VWS V14.01,2013-02-03 11:38:00,
2013-02-03 05:43:00,35.5,32.6,30.05,SSE,159,0.0,0.0,89,0.00,,OVC065,0.00,VWS V14.01,2013-02-03 11:43:00,
2013-02-03 05:48:00,35.5,32.6,30.05,SSE,159,0.0,1.0,89,0.00,,OVC065,0.00,VWS V14.01,2013-02-03 11:48:00,
2013-02-03 05:53:00,35.6,32.7,30.05,WNW,287,0.0,4.0,89,0.00,,OVC065,0.00,VWS V14.01,2013-02-03 11:53:00,
2013-02-03 05:58:00,36.0,33.1,30.05,WNW,287,0.0,0.0,89,0.00,,OVC065,0.00,VWS V14.01,2013-02-03 11:58:00,
2013-02-03 06:03:00,36.1,32.9,30.04,WNW,284,0.0,3.0,88,0.00,,OVC065,0.00,VWS V14.01,2013-02-03 12:03:00,
2013-02-03 06:08:00,36.2,33.0,30.05,West,264,0.0,5.0,88,0.00,,OVC065,0.00,VWS V14.01,2013-02-03 12:08:00,
2013-02-03 06:13:00,36.4,32.9,30.04,WSW,239,5.0,9.0,87,0.00,,OVC065,0.00,VWS V14.01,2013-02-03 12:13:00,
2013-02-03 06:18:00,37.3,33.5,30.05,West,274,6.0,10.0,86,0.00,,OVC065,0.00,VWS V14.01,2013-02-03 12:18:00,
2013-02-03 06:23:00,37.6,33.2,30.05,West,275,4.0,6.0,84,0.00,,OVC065,0.00,VWS V14.01,2013-02-03 12:23:00,
2013-02-03 06:28:00,37.8,33.4,30.05,WNW,299,0.0,6.0,84,0.00,,OVC065,0.00,VWS V14.01,2013-02-03 12:28:00,
2013-02-03 06:33:00,37.9,33.2,30.05,West,280,0.0,9.0,83,0.00,,OVC065,0.00,VWS V14.01,2013-02-03 12:33:00,
2013-02-03 06:38:00,38.0,33.3,30.05,WNW,296,0.0,5.0,83,0.00,,OVC065,0.00,VWS V14.01,2013-02-03 12:38:00,
2013-02-03 06:43:00,38.0,33.3,30.06,NNW,331,0.0,7.0,83,0.00,,OVC065,0.00,VWS V14.01,2013-02-03 12:43:00,
2013-02-03 06:48:00,38.0,33.3,30.06,NW,313,3.0,6.0,83,0.00,,OVC065,0.00,VWS V14.01,2013-02-03 12:48:00,
2013-02-03 06:53:00,38.1,33.4,30.06,NW,313,5.0,9.0,83,0.00,,OVC110,0.00,VWS V14.01,2013-02-03 12:53:00,
2013-02-03 06:58:00,38.3,33.3,30.06,WNW,296,2.0,14.0,82,0.00,,OVC110,0.00,VWS V14.01,2013-02-03 12:58:00,
2013-02-03 07:03:00,38.4,33.4,30.06,NW,307,1.0,9.0,82,0.00,,OVC110,0.00,VWS V14.01,2013-02-03 13:03:00,
2013-02-03 07:08:00,38.4,33.4,30.07,WNW,300,0.0,6.0,82,0.00,,OVC110,0.00,VWS V14.01,2013-02-03 13:08:00,
2013-02-03 07:13:00,38.4,33.4,30.07,NW,314,2.0,3.0,82,0.00,,OVC110,0.00,VWS V14.01,2013-02-03 13:13:00,
2013-02-03 07:18:00,38.3,33.3,30.07,NW,304,8.0,9.0,82,0.00,,OVC110,0.00,VWS V14.01,2013-02-03 13:18:00,
2013-02-03 07:23:00,38.4,33.4,30.08,NW,310,2.0,8.0,82,0.00,,OVC110,0.00,VWS V14.01,2013-02-03 13:23:00,
2013-02-03 07:28:00,38.6,33.3,30.08,WNW,290,5.0,10.0,81,0.00,,OVC110,0.00,VWS V14.01,2013-02-03 13:28:00,
2013-02-03 07:33:00,38.9,33.6,30.08,West,279,6.0,11.0,81,0.00,,OVC110,0.00,VWS V14.01,2013-02-03 13:33:00,
2013-02-03 07:38:00,39.1,33.8,30.08,NW,320,0.0,6.0,81,0.00,,OVC110,0.00,VWS V14.01,2013-02-03 13:38:00,
2013-02-03 07:43:00,39.3,34.0,30.09,NW,306,0.0,11.0,81,0.00,,FEW095,0.00,VWS V14.01,2013-02-03 13:43:00,
2013-02-03 07:48:00,39.5,33.8,30.08,NNW,333,0.0,14.0,80,0.00,,FEW095,0.00,VWS V14.01,2013-02-03 13:48:00,
2013-02-03 07:53:00,39.8,34.1,30.09,NNW,341,0.0,10.0,80,0.00,,FEW095,0.00,VWS V14.01,2013-02-03 13:53:00,
2013-02-03 07:58:00,40.0,34.3,30.09,WNW,284,6.0,8.0,80,0.00,,FEW095,0.00,VWS V14.01,2013-02-03 13:58:00,
2013-02-03 08:03:00,40.2,34.2,30.09,NNW,343,4.0,14.0,79,0.00,,FEW095,0.00,VWS V14.01,2013-02-03 14:03:00,
2013-02-03 08:08:00,40.5,34.5,30.09,NW,309,0.0,8.0,79,0.00,,FEW095,0.00,VWS V14.01,2013-02-03 14:08:00,
2013-02-03 08:13:00,40.7,34.4,30.09,West,273,10.0,15.0,78,0.00,,FEW095,0.00,VWS V14.01,2013-02-03 14:13:00,
2013-02-03 08:18:00,40.9,34.6,30.09,North,355,3.0,12.0,78,0.00,,FEW095,0.00,VWS V14.01,2013-02-03 14:18:00,
2013-02-03 08:23:00,41.1,34.5,30.09,NW,304,4.0,15.0,77,0.00,,FEW095,0.00,VWS V14.01,2013-02-03 14:23:00,
2013-02-03 08:28:00,41.3,34.7,30.09,NW,321,3.0,12.0,77,0.00,,FEW095,0.00,VWS V14.01,2013-02-03 14:28:00,
2013-02-03 08:33:00,41.4,34.4,30.10,NNW,346,5.0,10.0,76,0.00,,FEW095,0.00,VWS V14.01,2013-02-03 14:33:00,
2013-02-03 08:38:00,41.6,34.6,30.10,WNW,297,8.0,12.0,76,0.00,,FEW095,0.00,VWS V14.01,2013-02-03 14:38:00,
2013-02-03 08:43:00,41.8,34.8,30.10,WNW,292,6.0,7.0,76,0.00,,CLR,0.00,VWS V14.01,2013-02-03 14:43:00,
2013-02-03 08:48:00,42.0,34.3,30.10,NW,325,0.0,13.0,74,0.00,,CLR,0.00,VWS V14.01,2013-02-03 14:48:00,
2013-02-03 08:53:00,42.3,34.6,30.10,NW,304,4.0,7.0,74,0.00,,CLR,0.00,VWS V14.01,2013-02-03 14:53:00,
2013-02-03 08:58:00,42.6,34.9,30.10,WNW,296,2.0,7.0,74,0.00,,CLR,0.00,VWS V14.01,2013-02-03 14:58:00,
2013-02-03 09:03:00,42.9,34.8,30.10,WNW,293,6.0,10.0,73,0.00,,CLR,0.00,VWS V14.01,2013-02-03 15:03:00,
2013-02-03 09:08:00,43.1,35.0,30.10,NNW,338,4.0,5.0,73,0.00,,CLR,0.00,VWS V14.01,2013-02-03 15:08:00,
2013-02-03 09:13:00,43.2,34.5,30.10,WSW,257,6.0,9.0,71,0.00,,CLR,0.00,VWS V14.01,2013-02-03 15:13:00,
2013-02-03 09:18:00,43.3,34.5,30.10,NW,320,0.0,14.0,71,0.00,,CLR,0.00,VWS V14.01,2013-02-03 15:18:00,
2013-02-03 09:23:00,43.6,34.8,30.10,NW,310,2.0,11.0,71,0.00,,CLR,0.00,VWS V14.01,2013-02-03 15:23:00,
2013-02-03 09:28:00,43.7,34.9,30.10,West,268,9.0,12.0,71,0.00,,CLR,0.00,VWS V14.01,2013-02-03 15:28:00,
2013-02-03 09:33:00,44.0,35.2,30.11,NNE,19,5.0,9.0,71,0.00,,CLR,0.00,VWS V14.01,2013-02-03 15:33:00,
2013-02-03 09:38:00,44.0,34.9,30.10,NE,35,14.0,14.0,70,0.00,,CLR,0.00,VWS V14.01,2013-02-03 15:38:00,
2013-02-03 09:43:00,43.9,34.8,30.10,NNW,329,5.0,10.0,70,0.00,,CLR,0.00,VWS V14.01,2013-02-03 15:43:00,
2013-02-03 09:48:00,43.9,34.8,30.11,North,350,9.0,15.0,70,0.00,,CLR,0.00,VWS V14.01,2013-02-03 15:48:00,
2013-02-03 09:53:00,43.8,34.7,30.11,NW,304,8.0,18.0,70,0.00,,FEW035,0.00,VWS V14.01,2013-02-03 15:53:00,
2013-02-03 09:58:00,43.8,33.9,30.11,West,273,11.0,18.0,68,0.01,,FEW035,0.01,VWS V14.01,2013-02-03 15:58:00,
2013-02-03 10:03:00,44.0,34.5,30.11,NNW,344,9.0,17.0,69,0.01,,FEW035,0.01,VWS V14.01,2013-02-03 16:03:00,
2013-02-03 10:08:00,44.1,32.7,30.11,NNW,330,0.0,19.0,64,0.01,,FEW035,0.01,VWS V14.01,2013-02-03 16:08:00,
2013-02-03 10:13:00,44.2,32.8,30.12,NNW,342,10.0,18.0,64,0.01,,FEW035,0.01,VWS V14.01,2013-02-03 16:13:00,
2013-02-03 10:18:00,44.1,33.5,30.11,North,9,6.0,13.0,66,0.01,,FEW035,0.01,VWS V14.01,2013-02-03 16:18:00,
2013-02-03 10:23:00,44.2,32.4,30.12,West,269,7.0,18.0,63,0.01,,FEW035,0.01,VWS V14.01,2013-02-03 16:23:00,
2013-02-03 10:28:00,44.0,32.2,30.12,North,11,7.0,9.0,63,0.01,,FEW035,0.01,VWS V14.01,2013-02-03 16:28:00,
2013-02-03 10:33:00,43.7,32.0,30.12,NW,309,14.0,15.0,63,0.01,,FEW035,0.01,VWS V14.01,2013-02-03 16:33:00,
2013-02-03 10:38:00,43.6,31.9,30.11,NNE,15,11.0,16.0,63,0.01,,FEW035,0.01,VWS V14.01,2013-02-03 16:38:00,
2013-02-03 10:43:00,43.7,32.0,30.12,NW,319,3.0,15.0,63,0.01,,BKN045,0.01,VWS V14.01,2013-02-03 16:43:00,
2013-02-03 10:48:00,44.2,32.0,30.12,NW,316,6.0,13.0,62,0.01,,BKN045,0.01,VWS V14.01,2013-02-03 16:48:00,
2013-02-03 10:53:00,44.6,32.4,30.12,NNW,338,5.0,6.0,62,0.01,,BKN045,0.01,VWS V14.01,2013-02-03 16:53:00,
2013-02-03 10:58:00,44.5,31.9,30.12,NNE,13,3.0,17.0,61,0.01,,BKN045,0.01,VWS V14.01,2013-02-03 16:58:00,
2013-02-03 11:03:00,44.2,31.2,30.12,NNW,346,7.0,13.0,60,0.00,,BKN045,0.01,VWS V14.01,2013-02-03 17:03:00,
2013-02-03 11:08:00,44.3,31.3,30.12,West,278,8.0,11.0,60,0.00,,BKN045,0.01,VWS V14.01,2013-02-03 17:08:00,
2013-02-03 11:13:00,44.4,31.0,30.12,NNW,333,9.0,13.0,59,0.00,,BKN045,0.01,VWS V14.01,2013-02-03 17:13:00,
2013-02-03 11:18:00,44.6,31.2,30.12,WNW,299,10.0,13.0,59,0.00,,BKN045,0.01,VWS V14.01,2013-02-03 17:18:00,
2013-02-03 11:23:00,45.0,31.5,30.13,WNW,298,14.0,17.0,59,0.00,,BKN045,0.01,VWS V14.01,2013-02-03 17:23:00,
2013-02-03 11:28:00,45.6,32.5,30.13,North,355,6.0,13.0,60,0.00,,BKN045,0.01,VWS V14.01,2013-02-03 17:28:00,
2013-02-03 11:33:00,45.9,32.0,30.13,North,355,7.0,16.0,58,0.00,,BKN045,0.01,VWS V14.01,2013-02-03 17:33:00,
2013-02-03 11:38:00,45.5,31.2,30.13,NNW,346,2.0,11.0,57,0.00,,BKN045,0.01,VWS V14.01,2013-02-03 17:38:00,
2013-02-03 11:43:00,45.2,31.3,30.13,NNW,337,7.0,12.0,58,0.00,,BKN038,0.01,VWS V14.01,2013-02-03 17:43:00,
2013-02-03 11:48:00,45.4,31.5,30.12,North,355,4.0,13.0,58,0.00,,BKN038,0.01,VWS V14.01,2013-02-03 17:48:00,
2013-02-03 11:53:00,45.8,31.5,30.13,NNW,344,6.0,13.0,57,0.00,,BKN038,0.01,VWS V14.01,2013-02-03 17:53:00,
2013-02-03 11:58:00,45.7,31.4,30.12,NNW,338,7.0,17.0,57,0.00,,BKN038,0.01,VWS V14.01,2013-02-03 17:58:00,
2013-02-03 12:03:00,46.0,31.6,30.12,NNW,333,12.0,12.0,57,0.00,,BKN038,0.01,VWS V14.01,2013-02-03 18:03:00,
2013-02-03 12:08:00,46.5,31.2,30.12,NNE,25,6.0,15.0,55,0.00,,BKN038,0.01,VWS V14.01,2013-02-03 18:08:00,
2013-02-03 12:13:00,46.5,31.2,30.12,NNW,336,0.0,11.0,55,0.00,,BKN038,0.01,VWS V14.01,2013-02-03 18:13:00,
2013-02-03 12:18:00,46.0,30.3,30.12,NNW,329,8.0,17.0,54,0.00,,BKN038,0.01,VWS V14.01,2013-02-03 18:18:00,
2013-02-03 12:23:00,45.9,30.2,30.12,North,10,4.0,14.0,54,0.00,,BKN038,0.01,VWS V14.01,2013-02-03 18:23:00,
2013-02-03 12:28:00,46.4,30.2,30.12,NNW,344,6.0,15.0,53,0.00,,BKN038,0.01,VWS V14.01,2013-02-03 18:28:00,
2013-02-03 12:33:00,46.2,29.1,30.12,NNW,331,8.0,16.0,51,0.00,,BKN038,0.01,VWS V14.01,2013-02-03 18:33:00,
2013-02-03 12:38:00,46.0,30.3,30.12,NW,317,7.0,11.0,54,0.00,,BKN038,0.01,VWS V14.01,2013-02-03 18:38:00,
2013-02-03 12:43:00,46.1,30.4,30.12,NNE,29,7.0,17.0,54,0.00,,BKN050,0.01,VWS V14.01,2013-02-03 18:43:00,
2013-02-03 12:48:00,45.6,30.4,30.12,North,355,6.0,11.0,55,0.00,,BKN050,0.01,VWS V14.01,2013-02-03 18:48:00,
2013-02-03 12:53:00,45.9,31.1,30.12,North,360,4.0,8.0,56,0.00,,BKN050,0.01,VWS V14.01,2013-02-03 18:53:00,
2013-02-03 12:58:00,46.3,31.0,30.12,NW,309,5.0,13.0,55,0.00,,BKN050,0.01,VWS V14.01,2013-02-03 18:58:00,
2013-02-03 13:03:00,46.0,30.3,30.12,NNW,348,8.0,12.0,54,0.00,,BKN050,0.01,VWS V14.01,2013-02-03 19:03:00,
2013-02-03 13:08:00,45.5,30.3,30.13,NW,304,8.0,16.0,55,0.00,,BKN050,0.01,VWS V14.01,2013-02-03 19:08:00,
2013-02-03 13:13:00,45.8,30.1,30.12,NNE,19,7.0,14.0,54,0.00,,BKN050,0.01,VWS V14.01,2013-02-03 19:13:00,
2013-02-03 13:18:00,46.1,30.4,30.13,North,360,6.0,12.0,54,0.00,,BKN050,0.01,VWS V14.01,2013-02-03 19:18:00,
2013-02-03 13:23:00,46.1,30.4,30.13,North,5,7.0,10.0,54,0.00,,BKN050,0.01,VWS V14.01,2013-02-03 19:23:00,
2013-02-03 13:28:00,46.1,29.9,30.13,NNW,342,14.0,20.0,53,0.00,,BKN050,0.01,VWS V14.01,2013-02-03 19:28:00,
2013-02-03 13:33:00,46.0,30.3,30.13,NNW,333,4.0,14.0,54,0.00,,BKN050,0.01,VWS V14.01,2013-02-03 19:33:00,
2013-02-03 13:38:00,46.4,29.8,30.13,North,5,6.0,16.0,52,0.00,,BKN050,0.01,VWS V14.01,2013-02-03 19:38:00,
2013-02-03 13:43:00,46.6,29.5,30.13,NW,322,6.0,8.0,51,0.00,,BKN049,0.01,VWS V14.01,2013-02-03 19:43:00,
2013-02-03 13:48:00,46.8,29.2,30.13,NW,309,6.0,12.0,50,0.00,,BKN049,0.01,VWS V14.01,2013-02-03 19:48:00,
2013-02-03 13:53:00,46.6,29.5,30.13,NW,311,11.0,14.0,51,0.00,,BKN049,0.01,VWS V14.01,2013-02-03 19:53:00,
2013-02-03 13:58:00,46.9,29.7,30.13,NNW,333,2.0,14.0,51,0.00,,BKN049,0.01,VWS V14.01,2013-02-03 19:58:00,
2013-02-03 14:03:00,47.1,32.2,30.13,NNE,15,6.0,9.0,56,0.00,,BKN049,0.01,VWS V14.01,2013-02-03 20:03:00,
2013-02-03 14:08:00,45.9,32.0,30.14,NNW,337,5.0,10.0,58,0.00,,BKN049,0.01,VWS V14.01,2013-02-03 20:08:00,
2013-02-03 14:13:00,45.0,32.0,30.13,North,360,5.0,8.0,60,0.00,,BKN049,0.01,VWS V14.01,2013-02-03 20:13:00,
2013-02-03 14:18:00,44.6,32.0,30.13,NNW,347,1.0,3.0,61,0.00,,BKN049,0.01,VWS V14.01,2013-02-03 20:18:00,
2013-02-03 14:23:00,44.7,31.7,30.13,NNE,30,0.0,6.0,60,0.00,,BKN049,0.01,VWS V14.01,2013-02-03 20:23:00,
2013-02-03 14:28:00,44.9,31.9,30.13,North,5,1.0,8.0,60,0.00,,BKN049,0.01,VWS V14.01,2013-02-03 20:28:00,
2013-02-03 14:33:00,44.9,32.3,30.14,North,360,2.0,8.0,61,0.00,,BKN049,0.01,VWS V14.01,2013-02-03 20:33:00,
2013-02-03 14:38:00,44.8,31.8,30.13,NNE,18,0.0,4.0,60,0.00,,BKN049,0.01,VWS V14.01,2013-02-03 20:38:00,
2013-02-03 14:43:00,45.1,31.6,30.13,NE,35,5.0,10.0,59,0.00,,BKN049,0.01,VWS V14.01,2013-02-03 20:43:00,
2013-02-03 14:48:00,45.2,31.7,30.14,NNE,32,5.0,8.0,59,0.00,,BKN049,0.01,VWS V14.01,2013-02-03 20:48:00,
2013-02-03 14:53:00,45.4,31.9,30.13,North,5,7.0,11.0,59,0.00,,BKN049,0.01,VWS V14.01,2013-02-03 20:53:00,
2013-02-03 14:58:00,45.0,31.1,30.14,NE,37,2.0,8.0,58,0.00,,BKN049,0.01,VWS V14.01,2013-02-03 20:58:00,
2013-02-03 15:03:00,44.6,30.8,30.14,North,5,6.0,11.0,58,0.00,,BKN049,0.01,VWS V14.01,2013-02-03 21:03:00,
2013-02-03 15:08:00,44.6,30.3,30.14,NNE,16,5.0,12.0,57,0.00,,BKN049,0.01,VWS V14.01,2013-02-03 21:08:00,
2013-02-03 15:13:00,44.7,30.4,30.15,North,5,5.0,9.0,57,0.00,,BKN049,0.01,VWS V14.01,2013-02-03 21:13:00,
2013-02-03 15:18:00,44.6,30.8,30.14,North,355,5.0,7.0,58,0.00,,BKN049,0.01,VWS V14.01,2013-02-03 21:18:00,
2013-02-03 15:23:00,44.8,30.5,30.15,North,355,0.0,11.0,57,0.00,,BKN049,0.01,VWS V14.01,2013-02-03 21:23:00,
2013-02-03 15:28:00,44.9,31.0,30.15,NNW,342,2.0,9.0,58,0.00,,BKN049,0.01,VWS V14.01,2013-02-03 21:28:00,
2013-02-03 15:33:00,44.7,31.3,30.15,NNE,30,4.0,7.0,59,0.00,,BKN049,0.01,VWS V14.01,2013-02-03 21:33:00,
2013-02-03 15:38:00,44.3,31.7,30.15,North,5,5.0,10.0,61,0.00,,BKN049,0.01,VWS V14.01,2013-02-03 21:38:00,
2013-02-03 15:43:00,44.1,31.5,30.15,NNE,16,4.0,8.0,61,0.00,,SCT050,0.01,VWS V14.01,2013-02-03 21:43:00,
2013-02-03 15:48:00,43.9,31.7,30.15,NNE,13,0.0,9.0,62,0.00,,SCT050,0.01,VWS V14.01,2013-02-03 21:48:00,
2013-02-03 15:53:00,43.8,31.6,30.16,NNE,22,3.0,7.0,62,0.00,,SCT050,0.01,VWS V14.01,2013-02-03 21:53:00,
2013-02-03 15:58:00,43.3,31.6,30.16,North,11,4.0,8.0,63,0.00,,SCT050,0.01,VWS V14.01,2013-02-03 21:58:00,
2013-02-03 16:03:00,43.0,31.7,30.16,NNE,22,0.0,7.0,64,0.00,,SCT050,0.01,VWS V14.01,2013-02-03 22:03:00,
2013-02-03 16:08:00,42.8,31.5,30.15,North,11,4.0,8.0,64,0.00,,SCT050,0.01,VWS V14.01,2013-02-03 22:08:00,
2013-02-03 16:13:00,42.9,31.6,30.15,NNW,333,0.0,5.0,64,0.00,,SCT050,0.01,VWS V14.01,2013-02-03 22:13:00,
2013-02-03 16:18:00,43.0,31.3,30.15,NW,326,4.0,5.0,63,0.00,,SCT050,0.01,VWS V14.01,2013-02-03 22:18:00,
2013-02-03 16:23:00,43.1,31.4,30.15,North,355,0.0,7.0,63,0.00,,SCT050,0.01,VWS V14.01,2013-02-03 22:23:00,
2013-02-03 16:28:00,43.1,31.0,30.16,NE,34,2.0,5.0,62,0.00,,SCT050,0.01,VWS V14.01,2013-02-03 22:28:00,
2013-02-03 16:33:00,43.1,30.6,30.15,North,5,3.0,6.0,61,0.00,,SCT050,0.01,VWS V14.01,2013-02-03 22:33:00,
2013-02-03 16:38:00,43.1,30.6,30.16,North,5,3.0,6.0,61,0.00,,SCT050,0.01,VWS V14.01,2013-02-03 22:38:00,
2013-02-03 16:43:00,43.1,30.6,30.16,North,11,0.0,3.0,61,0.00,,SCT049,0.01,VWS V14.01,2013-02-03 22:43:00,
2013-02-03 16:48:00,42.9,30.4,30.16,NNW,329,4.0,5.0,61,0.00,,SCT049,0.01,VWS V14.01,2013-02-03 22:48:00,
2013-02-03 16:53:00,42.7,29.8,30.16,NNW,344,4.0,9.0,60,0.00,,SCT049,0.01,VWS V14.01,2013-02-03 22:53:00,
2013-02-03 16:58:00,42.5,30.0,30.16,NNW,328,0.0,2.0,61,0.00,,SCT049,0.01,VWS V14.01,2013-02-03 22:58:00,
2013-02-03 17:03:00,42.3,29.8,30.16,NW,323,1.0,4.0,61,0.00,,SCT049,0.01,VWS V14.01,2013-02-03 23:03:00,
2013-02-03 17:08:00,42.1,29.6,30.16,NW,326,2.0,2.0,61,0.00,,SCT049,0.01,VWS V14.01,2013-02-03 23:08:00,
2013-02-03 17:13:00,41.9,29.9,30.16,NW,326,0.0,1.0,62,0.00,,SCT049,0.01,VWS V14.01,2013-02-03 23:13:00,
2013-02-03 17:18:00,41.8,29.8,30.16,NNW,327,0.0,0.0,62,0.00,,SCT049,0.01,VWS V14.01,2013-02-03 23:18:00,
2013-02-03 17:23:00,41.6,29.6,30.16,NNW,327,0.0,0.0,62,0.00,,SCT049,0.01,VWS V14.01,2013-02-03 23:23:00,
2013-02-03 17:28:00,41.3,29.7,30.16,NW,326,0.0,0.0,63,0.00,,SCT049,0.01,VWS V14.01,2013-02-03 23:28:00,
2013-02-03 17:33:00,41.0,29.8,30.17,NW,326,0.0,0.0,64,0.00,,SCT049,0.01,VWS V14.01,2013-02-03 23:33:00,
2013-02-03 17:38:00,40.7,29.9,30.17,NNW,327,0.0,0.0,65,0.00,,SCT049,0.01,VWS V14.01,2013-02-03 23:38:00,
2013-02-03 17:43:00,40.4,30.0,30.17,NNW,327,0.0,1.0,66,0.00,,FEW049,0.01,VWS V14.01,2013-02-03 23:43:00,
2013-02-03 17:48:00,40.2,29.8,30.17,NNW,327,0.0,3.0,66,0.00,,FEW049,0.01,VWS V14.01,2013-02-03 23:48:00,
2013-02-03 17:53:00,39.9,29.9,30.18,NNW,327,0.0,0.0,67,0.00,,FEW049,0.01,VWS V14.01,2013-02-03 23:53:00,
2013-02-03 17:58:00,39.7,30.0,30.18,NW,326,0.0,0.0,68,0.00,,FEW049,0.01,VWS V14.01,2013-02-03 23:58:00,
2013-02-03 18:03:00,39.4,29.7,30.18,NE,37,0.0,3.0,68,0.00,,FEW049,0.01,VWS V14.01,2013-02-04 00:03:00,
2013-02-03 18:08:00,39.1,29.8,30.18,NE,37,0.0,2.0,69,0.00,,FEW049,0.01,VWS V14.01,2013-02-04 00:08:00,
2013-02-03 18:13:00,38.9,30.0,30.18,NE,37,0.0,0.0,70,0.00,,FEW250,0.01,VWS V14.01,2013-02-04 00:13:00,
2013-02-03 18:18:00,38.7,29.8,30.19,NE,37,0.0,1.0,70,0.00,,FEW250,0.01,VWS V14.01,2013-02-04 00:18:00,
2013-02-03 18:23:00,38.5,29.9,30.18,NE,37,0.0,0.0,71,0.00,,FEW250,0.01,VWS V14.01,2013-02-04 00:23:00,
2013-02-03 18:28:00,38.3,29.7,30.19,NE,37,0.0,0.0,71,0.00,,FEW250,0.01,VWS V14.01,2013-02-04 00:28:00,
2013-02-03 18:33:00,38.1,29.5,30.18,NE,37,0.0,0.0,71,0.00,,FEW250,0.01,VWS V14.01,2013-02-04 00:33:00,
2013-02-03 18:38:00,38.0,29.5,30.18,NE,37,0.0,0.0,71,0.00,,FEW250,0.01,VWS V14.01,2013-02-04 00:38:00,
2013-02-03 18:43:00,37.8,29.3,30.18,NE,37,0.0,0.0,71,0.00,,FEW250,0.01,VWS V14.01,2013-02-04 00:43:00,
2013-02-03 18:48:00,37.7,29.5,30.19,NE,37,0.0,0.0,72,0.00,,FEW250,0.01,VWS V14.01,2013-02-04 00:48:00,
2013-02-03 18:53:00,37.4,29.2,30.19,NE,37,0.0,0.0,72,0.00,,FEW250,0.01,VWS V14.01,2013-02-04 00:53:00,
2013-02-03 18:58:00,37.3,30.1,30.19,NE,37,0.0,0.0,75,0.00,,FEW250,0.01,VWS V14.01,2013-02-04 00:58:00,
2013-02-03 19:03:00,37.1,29.6,30.19,NE,37,0.0,0.0,74,0.00,,FEW250,0.01,VWS V14.01,2013-02-04 01:03:00,
2013-02-03 19:08:00,36.9,29.4,30.19,NE,37,0.0,0.0,74,0.00,,FEW250,0.01,VWS V14.01,2013-02-04 01:08:00,
2013-02-03 19:13:00,36.6,29.1,30.19,NE,37,0.0,0.0,74,0.00,,FEW250,0.01,VWS V14.01,2013-02-04 01:13:00,
2013-02-03 19:18:00,36.2,29.0,30.19,NE,37,0.0,0.0,75,0.00,,FEW250,0.01,VWS V14.01,2013-02-04 01:18:00,
2013-02-03 19:23:00,35.9,28.8,30.19,NE,37,0.0,0.0,75,0.00,,FEW250,0.01,VWS V14.01,2013-02-04 01:23:00,
2013-02-03 19:28:00,35.5,28.7,30.19,NE,37,0.0,0.0,76,0.00,,FEW250,0.01,VWS V14.01,2013-02-04 01:28:00,
2013-02-03 19:33:00,35.0,28.5,30.19,NE,37,0.0,0.0,77,0.00,,FEW250,0.01,VWS V14.01,2013-02-04 01:33:00,
2013-02-03 19:38:00,34.7,28.5,30.19,NE,37,0.0,0.0,78,0.00,,FEW250,0.01,VWS V14.01,2013-02-04 01:38:00,
2013-02-03 19:43:00,34.4,28.6,30.19,NE,37,0.0,0.0,79,0.00,,FEW250,0.01,VWS V14.01,2013-02-04 01:43:00,
2013-02-03 19:47:00,34.2,28.7,30.19,NE,37,0.0,0.0,80,0.00,,FEW250,0.01,VWS V14.01,2013-02-04 01:47:00,
2013-02-03 19:52:00,34.0,28.5,30.19,NE,37,0.0,0.0,80,0.00,,FEW250,0.01,VWS V14.01,2013-02-04 01:52:00,
2013-02-03 19:57:00,33.8,28.3,30.19,NE,37,0.0,0.0,80,0.00,,FEW250,0.01,VWS V14.01,2013-02-04 01:57:00,
2013-02-03 20:02:00,33.6,28.4,30.19,NE,37,0.0,0.0,81,0.00,,FEW250,0.01,VWS V14.01,2013-02-04 02:02:00,
2013-02-03 20:07:00,33.4,28.2,30.20,NE,37,0.0,0.0,81,0.00,,FEW250,0.01,VWS V14.01,2013-02-04 02:07:00,
2013-02-03 20:12:00,33.1,28.2,30.20,NE,37,0.0,0.0,82,0.00,,FEW250,0.01,VWS V14.01,2013-02-04 02:12:00,
2013-02-03 20:17:00,32.9,28.0,30.20,NE,37,0.0,0.0,82,0.00,,FEW250,0.01,VWS V14.01,2013-02-04 02:17:00,
2013-02-03 20:22:00,32.7,28.1,30.20,NE,37,0.0,0.0,83,0.00,,FEW250,0.01,VWS V14.01,2013-02-04 02:22:00,
2013-02-03 20:27:00,32.6,28.0,30.20,NE,37,0.0,1.0,83,0.00,,FEW250,0.01,VWS V14.01,2013-02-04 02:27:00,
2013-02-03 20:32:00,32.9,28.0,30.20,NE,37,0.0,1.0,82,0.00,,FEW250,0.01,VWS V14.01,2013-02-04 02:32:00,
2013-02-03 20:37:00,33.1,27.9,30.20,NE,37,0.0,2.0,81,0.00,,FEW250,0.01,VWS V14.01,2013-02-04 02:37:00,
2013-02-03 20:42:00,33.4,27.9,30.20,NE,37,0.0,0.0,80,0.00,,CLR,0.01,VWS V14.01,2013-02-04 02:42:00,
2013-02-03 20:47:00,33.5,27.7,30.20,NE,37,0.0,0.0,79,0.00,,CLR,0.01,VWS V14.01,2013-02-04 02:47:00,
2013-02-03 20:52:00,33.5,27.7,30.20,NE,37,0.0,0.0,79,0.00,,CLR,0.01,VWS V14.01,2013-02-04 02:52:00,
2013-02-03 20:57:00,33.5,27.7,30.20,NE,37,0.0,0.0,79,0.00,,CLR,0.01,VWS V14.01,2013-02-04 02:57:00,
2013-02-03 21:02:00,33.5,27.7,30.20,NE,37,0.0,1.0,79,0.00,,CLR,0.01,VWS V14.01,2013-02-04 03:02:00,
2013-02-03 21:07:00,33.4,27.9,30.21,NE,37,0.0,0.0,80,0.00,,CLR,0.01,VWS V14.01,2013-02-04 03:07:00,
2013-02-03 21:12:00,33.3,27.8,30.21,NE,37,0.0,0.0,80,0.00,,CLR,0.01,VWS V14.01,2013-02-04 03:12:00,
2013-02-03 21:17:00,33.1,27.9,30.21,NE,37,0.0,0.0,81,0.00,,CLR,0.01,VWS V14.01,2013-02-04 03:17:00,
2013-02-03 21:22:00,32.9,27.7,30.21,NE,37,0.0,2.0,81,0.00,,CLR,0.01,VWS V14.01,2013-02-04 03:22:00,
2013-02-03 21:27:00,32.8,27.6,30.21,NE,37,0.0,0.0,81,0.00,,CLR,0.01,VWS V14.01,2013-02-04 03:27:00,
2013-02-03 21:32:00,32.6,27.4,30.21,NE,37,0.0,0.0,81,0.00,,CLR,0.01,VWS V14.01,2013-02-04 03:32:00,
2013-02-03 21:37:00,32.5,27.3,30.21,NE,37,0.0,0.0,81,0.00,,CLR,0.01,VWS V14.01,2013-02-04 03:37:00,
2013-02-03 21:42:00,32.4,27.5,30.21,NE,37,0.0,0.0,82,0.00,,CLR,0.01,VWS V14.01,2013-02-04 03:42:00,
2013-02-03 21:47:00,32.3,27.4,30.21,NE,37,0.0,0.0,82,0.00,,CLR,0.01,VWS V14.01,2013-02-04 03:47:00,
2013-02-03 21:52:00,32.1,27.2,30.20,NE,37,0.0,0.0,82,0.00,,CLR,0.01,VWS V14.01,2013-02-04 03:52:00,
2013-02-03 21:57:00,32.0,27.1,30.20,NE,37,0.0,1.0,82,0.00,,CLR,0.01,VWS V14.01,2013-02-04 03:57:00,
2013-02-03 22:02:00,31.9,27.0,30.19,NE,37,0.0,0.0,82,0.00,,CLR,0.01,VWS V14.01,2013-02-04 04:02:00,
2013-02-03 22:07:00,31.7,26.8,30.19,NE,40,0.0,2.0,82,0.00,,CLR,0.01,VWS V14.01,2013-02-04 04:07:00,
2013-02-03 22:12:00,31.6,26.8,30.19,NE,40,0.0,0.0,82,0.00,,CLR,0.01,VWS V14.01,2013-02-04 04:12:00,
2013-02-03 22:17:00,31.5,26.6,30.20,NE,40,0.0,0.0,82,0.00,,CLR,0.01,VWS V14.01,2013-02-04 04:17:00,
2013-02-03 22:22:00,31.4,26.5,30.19,NE,40,0.0,0.0,82,0.00,,CLR,0.01,VWS V14.01,2013-02-04 04:22:00,
2013-02-03 22:27:00,31.3,26.5,30.20,NE,40,0.0,0.0,82,0.00,,CLR,0.01,VWS V14.01,2013-02-04 04:27:00,
2013-02-03 22:32:00,31.1,26.3,30.20,NE,40,0.0,0.0,82,0.00,,CLR,0.01,VWS V14.01,2013-02-04 04:32:00,
2013-02-03 22:37:00,31.0,26.5,30.19,NE,40,0.0,0.0,83,0.00,,CLR,0.01,VWS V14.01,2013-02-04 04:37:00,
2013-02-03 22:42:00,30.7,26.2,30.19,NE,40,0.0,0.0,83,0.00,,CLR,0.01,VWS V14.01,2013-02-04 04:42:00,
2013-02-03 22:47:00,30.5,26.0,30.19,NE,40,0.0,0.0,83,0.00,,CLR,0.01,VWS V14.01,2013-02-04 04:47:00,
2013-02-03 22:52:00,30.4,26.1,30.18,NE,40,0.0,0.0,84,0.00,,CLR,0.01,VWS V14.01,2013-02-04 04:52:00,
2013-02-03 22:57:00,30.2,26.0,30.18,NE,40,0.0,0.0,84,0.00,,CLR,0.01,VWS V14.01,2013-02-04 04:57:00,
2013-02-03 23:00:00,30.1,25.9,30.19,NE,40,0.0,0.0,84,0.00,,CLR,0.01,VWS V14.01,2013-02-04 05:00:00,
2013-02-03 23:01:00,30.1,25.9,30.19,NE,40,0.0,0.0,84,0.00,,CLR,0.01,VWS V14.01,2013-02-04 05:01:00,
2013-02-03 23:06:00,29.9,26.0,30.19,NE,40,0.0,0.0,85,0.00,,CLR,0.01,VWS V14.01,2013-02-04 05:06:00,
2013-02-03 23:11:00,29.7,25.8,30.19,NE,40,0.0,0.0,85,0.00,,CLR,0.01,VWS V14.01,2013-02-04 05:11:00,
2013-02-03 23:16:00,29.5,25.6,30.19,NE,40,0.0,0.0,85,0.00,,CLR,0.01,VWS V14.01,2013-02-04 05:16:00,
2013-02-03 23:21:00,29.3,25.6,30.19,NE,40,0.0,0.0,86,0.00,,CLR,0.01,VWS V14.01,2013-02-04 05:21:00,
2013-02-03 23:26:00,29.2,25.5,30.19,NE,40,0.0,0.0,86,0.00,,CLR,0.01,VWS V14.01,2013-02-04 05:26:00,
2013-02-03 23:31:00,29.1,25.4,30.18,NE,40,0.0,0.0,86,0.00,,CLR,0.01,VWS V14.01,2013-02-04 05:31:00,
2013-02-03 23:36:00,29.0,25.6,30.18,NE,40,0.0,0.0,87,0.00,,CLR,0.01,VWS V14.01,2013-02-04 05:36:00,
2013-02-03 23:41:00,28.9,25.5,30.18,NE,40,0.0,0.0,87,0.00,,CLR,0.01,VWS V14.01,2013-02-04 05:41:00,
2013-02-03 23:46:00,28.8,25.4,30.18,NE,40,0.0,0.0,87,0.00,,CLR,0.01,VWS V14.01,2013-02-04 05:46:00,
2013-02-03 23:51:00,28.7,25.3,30.18,NE,40,0.0,0.0,87,0.00,,CLR,0.01,VWS V14.01,2013-02-04 05:51:00,
2013-02-03 23:56:00,28.6,25.2,30.17,NE,40,0.0,0.0,87,0.00,,CLR,0.01,VWS V14.01,2013-02-04 05:56:00,